Martinsburg, WV

4:32 AM EST on December 07, 2019 (GMT -0500)
Eastern W Va Regional-Shepherd

Weather History for KMRB - October, 2019

Change the Weather History Date:

Thursday, October 17, 2019

  Actual Average Record
Temperature  
Mean Temperature 52 °F 53 °F  
Max Temperature 55 °F 65 °F 90 °F (1932)
Min Temperature 48 °F 42 °F 29 °F (1937)
Degree Days  
Heating Degree Days 14 12  
Month to date heating degree days 114 159  
Since 1 July heating degree days 126 250  
Cooling Degree Days 0 0  
Month to date cooling degree days 37 8  
Year to date cooling degree days 1280 893  
Growing Degree Days 2 (Base 50)    
Moisture  
Dew Point 36 °F    
Average Humidity 55    
Maximum Humidity 66    
Minimum Humidity 46    
Precipitation  
Precipitation 0.00 in 0.09 in 3.75 in (1936)
Month to date precipitation 1.80 1.69  
Year to date precipitation 36.70 31.50  
Sea Level Pressure  
Sea Level Pressure 29.69 in    
Wind  
Wind Speed 18 mph ()    
Max Wind Speed 36 mph    
Max Gust Speed 44 mph    
Visibility 10.0 miles    
Events      
T = Trace of Precipitation, MM = Missing Value Source: Averaged Metar Reports

Daily Weather History Graph

Daily Weather History Graph

Search for Another Location

Airport or City:

Astronomy

Oct. 17, 2019 Rise Set
Actual Time 7:23 AM EDT 6:30 PM EDT
Civil Twilight 6:56 AM EDT 6:57 PM EDT
Nautical Twilight 6:25 AM EDT 7:28 PM EDT
Astronomical Twilight 5:54 AM EDT 7:59 PM EDT
Moon 9:01 PM EDT (10/17) 10:52 AM EDT (10/17)
Length of Visible Light 12h 00m
Length of Day
11h 06m
Waning Gibbous, 87% of the Moon is Illuminated
Oct 17
Waning Gibbous
Oct 21
Last Quarter
Oct 27
New
Nov 4
First Quarter
Nov 12
Full

Hourly Weather History & Observations

Time (EDT) Temp. Dew Point Humidity Pressure Visibility Wind Dir Wind Speed Gust Speed Precip Events Conditions
12:53 AM 50.0 °F 37.9 °F 63% 29.56 in 10.0 mi West 24.2 mph 38.0 mph N/A   Partly Cloudy
1:53 AM 51.1 °F 37.9 °F 61% 29.55 in 10.0 mi West 20.7 mph 43.7 mph N/A   Scattered Clouds
2:53 AM 52.0 °F 37.9 °F 59% 29.56 in 10.0 mi West 19.6 mph 35.7 mph N/A   Overcast
3:53 AM 52.0 °F 37.0 °F 57% 29.56 in 10.0 mi NW 23.0 mph 43.7 mph N/A   Mostly Cloudy
4:53 AM 51.1 °F 36.0 °F 56% 29.57 in 10.0 mi WNW 24.2 mph 38.0 mph N/A   Scattered Clouds
5:53 AM 50.0 °F 37.0 °F 61% 29.60 in 10.0 mi West 27.6 mph 38.0 mph N/A   Scattered Clouds
6:53 AM 48.9 °F 37.0 °F 64% 29.61 in 10.0 mi WNW 20.7 mph 38.0 mph N/A   Scattered Clouds
7:53 AM 50.0 °F 37.0 °F 61% 29.63 in 10.0 mi WNW 18.4 mph 34.5 mph N/A   Overcast
8:53 AM 50.0 °F 36.0 °F 59% 29.64 in 10.0 mi West 19.6 mph 33.4 mph N/A   Overcast
9:53 AM 52.0 °F 36.0 °F 54% 29.65 in 10.0 mi West 20.7 mph 32.2 mph N/A   Mostly Cloudy
10:53 AM 52.0 °F 36.0 °F 54% 29.67 in 10.0 mi WNW 19.6 mph 32.2 mph N/A   Overcast
11:53 AM 54.0 °F 36.0 °F 51% 29.65 in 10.0 mi West 33.4 mph 42.6 mph N/A   Mostly Cloudy
12:53 PM 52.0 °F 36.0 °F 54% 29.71 in 10.0 mi WNW 24.2 mph 32.2 mph N/A   Overcast
1:53 PM 53.1 °F 36.0 °F 52% 29.71 in 10.0 mi West 23.0 mph 31.1 mph N/A   Overcast
2:53 PM 52.0 °F 36.0 °F 54% 29.73 in 10.0 mi NW 20.7 mph 28.8 mph N/A   Overcast
3:53 PM 52.0 °F 36.0 °F 54% 29.75 in 10.0 mi NW 16.1 mph 26.5 mph N/A   Overcast
4:53 PM 53.1 °F 35.1 °F 50% 29.75 in 10.0 mi WNW 12.7 mph - N/A   Overcast
5:53 PM 53.1 °F 35.1 °F 50% 29.75 in 10.0 mi West 15.0 mph 26.5 mph N/A   Overcast
6:53 PM 52.0 °F 34.0 °F 50% 29.78 in 10.0 mi WNW 18.4 mph 27.6 mph N/A   Scattered Clouds
7:53 PM 52.0 °F 34.0 °F 50% 29.80 in 10.0 mi WNW 10.4 mph - N/A   Partly Cloudy
8:53 PM 51.1 °F 35.1 °F 54% 29.83 in 10.0 mi WNW 12.7 mph 16.1 mph N/A   Overcast
9:53 PM 50.0 °F 33.1 °F 52% 29.85 in 10.0 mi WNW 18.4 mph 27.6 mph N/A   Clear
10:53 PM 50.0 °F 30.9 °F 48% 29.86 in 10.0 mi NNW 15.0 mph 21.9 mph N/A   Clear
11:53 PM 50.0 °F 30.9 °F 48% 29.86 in 10.0 mi WNW 9.2 mph 21.9 mph N/A   Clear